Bennington, VT

7:59 PM EDT on April 29, 2017 (GMT -0400)
Morse State

Weather History for KDDH - October, 2012

Change the Weather History Date:

Friday, October 5, 2012

  Actual Average Record
Temperature  
Mean Temperature 60 °F 51 °F  
Max Temperature 75 °F 63 °F 82 °F (2007)
Min Temperature 45 °F 40 °F 30 °F (2004)
Degree Days  
Heating Degree Days 5 14  
Month to date heating degree days 26 65  
Since 1 July heating degree days 241 343  
Cooling Degree Days 0 0  
Month to date cooling degree days 2 0  
Year to date cooling degree days 476 311  
Growing Degree Days 10 (Base 50)    
Moisture  
Dew Point 52 °F    
Average Humidity 73    
Maximum Humidity 100    
Minimum Humidity 46    
Precipitation  
Precipitation 0.11 in 0.13 in 0.14 in (2010)
Month to date precipitation 0.61 0.64  
Year to date precipitation 25.22 31.75  
Sea Level Pressure  
Sea Level Pressure 30.01 in    
Wind  
Wind Speed 1 mph (SSW)    
Max Wind Speed 13 mph    
Max Gust Speed 22 mph    
Visibility 4 miles    
Events Fog , Rain    
T = Trace of Precipitation, MM = Missing Value Source: NWS Daily Summary

Daily Weather History Graph

Daily Weather History Graph

Search for Another Location

Airport or City:

Trip Planner

Search our weather history database for the weather conditions in past years. The results will help you decide how hot, cold, wet, or windy it might be!

Date:

Astronomy

Oct. 05, 2012 Rise Set
Actual Time 6:55 AM EDT 6:26 PM EDT
Civil Twilight 6:27 AM EDT 6:54 PM EDT
Nautical Twilight 5:54 AM EDT 7:27 PM EDT
Astronomical Twilight 5:21 AM EDT 8:00 PM EDT
Moon 9:40 PM EDT (10/5) 12:07 PM EDT (10/5)
Length of Visible Light 12h 27m
Length of Day
11h 31m
Waning Gibbous, 74% of the Moon is Illuminated
Oct 5
Waning Gibbous
Oct 8
Last Quarter
Oct 15
New
Oct 21
First Quarter
Oct 29
Full

Hourly Weather History & Observations

Time (EDT) Temp. Dew Point Humidity Pressure Visibility Wind Dir Wind Speed Gust Speed Precip Events Conditions
12:03 AM 53.6 °F 53.6 °F 100% 30.05 in 1.5 mi Calm Calm - N/A   Clear
12:20 AM 51.8 °F 50.0 °F 94% 30.05 in 0.2 mi SSE 3.5 mph - N/A Fog Fog
12:27 AM 51.8 °F 50.0 °F 94% 30.05 in 0.2 mi SSE 3.5 mph - N/A Fog Fog
12:36 AM 51.8 °F 50.0 °F 94% 30.05 in 0.5 mi Calm Calm - N/A Fog Fog
12:54 AM 52.0 °F 51.1 °F 97% 30.04 in 0.5 mi SSE 3.5 mph - N/A Fog Fog
1:16 AM 51.8 °F 51.8 °F 100% 30.04 in 0.2 mi Calm Calm - N/A Fog Fog
1:54 AM 51.1 °F 51.1 °F 100% 30.04 in 0.2 mi Calm Calm - N/A Fog Fog
2:24 AM 51.8 °F 50.0 °F 94% 30.04 in 0.5 mi Calm Calm - N/A Fog Fog
2:47 AM 50.0 °F 48.2 °F 94% 30.04 in 0.2 mi Calm Calm - N/A Fog Fog
3:31 AM 48.2 °F 48.2 °F 100% 30.04 in 0.5 mi Calm Calm - N/A Fog Fog
3:43 AM 50.0 °F 48.2 °F 94% 30.05 in 0.2 mi Calm Calm - N/A Fog Fog
3:54 AM 48.0 °F 46.9 °F 96% 30.05 in 0.2 mi Calm Calm - N/A Fog Fog
4:54 AM 48.0 °F 46.9 °F 96% 30.05 in 0.2 mi Calm Calm - N/A Fog Fog
5:31 AM 46.4 °F 46.4 °F 100% 30.05 in 0.8 mi Calm Calm - N/A   Mist
5:54 AM 46.9 °F 46.0 °F 97% 30.05 in 0.5 mi Calm Calm - N/A Fog Fog
6:26 AM 46.4 °F 46.4 °F 100% 30.05 in 0.2 mi Calm Calm - 0.01 in Fog Fog
6:54 AM 45.0 °F 44.1 °F 97% 30.05 in 0.2 mi Calm Calm - 0.01 in Fog Fog
7:01 AM 44.6 °F 44.6 °F 100% 30.05 in 0.5 mi Calm Calm - N/A Fog Fog
7:08 AM 44.6 °F 44.6 °F 100% 30.05 in 1.2 mi Calm Calm - N/A   Scattered Clouds
7:28 AM 48.2 °F 46.4 °F 93% 30.05 in 2.0 mi Calm Calm - N/A   Clear
7:30 AM 48.2 °F 46.4 °F 93% 30.05 in 1.5 mi Calm Calm - N/A   Partly Cloudy
7:46 AM 48.2 °F 46.4 °F 93% 30.05 in 3.0 mi Calm Calm - N/A   Clear
7:54 AM 48.9 °F 48.0 °F 97% 30.05 in 3.0 mi Calm Calm - N/A   Clear
8:03 AM 50.0 °F 50.0 °F 100% 30.05 in 2.0 mi Calm Calm - N/A   Clear
8:24 AM 53.6 °F 51.8 °F 94% 30.05 in 3.0 mi Calm Calm - N/A   Clear
8:54 AM 55.9 °F 54.0 °F 93% 30.05 in 5.0 mi Calm Calm - N/A   Clear
9:54 AM 61.0 °F 57.0 °F 87% 30.04 in 10.0 mi Calm Calm - N/A   Clear
10:54 AM 64.0 °F 53.1 °F 67% 30.05 in 10.0 mi SW 3.5 mph - N/A   Clear
11:54 AM 66.9 °F 54.0 °F 63% 30.02 in 10.0 mi Calm Calm - N/A   Clear
12:54 PM 70.0 °F 55.0 °F 59% 29.99 in 10.0 mi Calm Calm - N/A   Clear
1:54 PM 73.0 °F 54.0 °F 51% 29.96 in 10.0 mi Variable 3.5 mph - N/A   Clear
2:54 PM 73.0 °F 52.0 °F 48% 29.95 in 10.0 mi West 3.5 mph - N/A   Overcast
3:54 PM 75.0 °F 53.1 °F 46% 29.93 in 10.0 mi Calm Calm - N/A   Mostly Cloudy
4:54 PM 73.9 °F 54.0 °F 50% 29.93 in 10.0 mi Calm Calm - N/A   Partly Cloudy
5:54 PM 69.1 °F 55.9 °F 63% 29.94 in 10.0 mi West 4.6 mph - N/A   Clear
6:54 PM 61.0 °F 57.9 °F 90% 29.94 in 10.0 mi SSE 3.5 mph - N/A   Clear
7:54 PM 60.1 °F 55.9 °F 86% 29.93 in 10.0 mi Calm Calm - N/A   Partly Cloudy
8:54 PM 61.0 °F 57.9 °F 90% 29.91 in 8.0 mi Calm Calm - 0.00 in Rain Light Rain
9:18 PM 62.6 °F 60.8 °F 94% 29.95 in 1.8 mi NW 5.8 mph - 0.09 in Rain Heavy Rain
9:25 PM 62.6 °F 60.8 °F 94% 29.95 in 3.0 mi Calm Calm - 0.10 in Rain Light Rain
9:54 PM 62.1 °F 60.1 °F 93% 29.94 in 8.0 mi SE 4.6 mph - 0.10 in   Overcast
10:54 PM 62.1 °F 60.1 °F 93% 29.91 in 8.0 mi WNW 3.5 mph - N/A   Overcast
11:54 PM 62.1 °F 60.1 °F 93% 29.89 in 6.0 mi Calm Calm - 0.01 in Rain Light Rain